Guthrie, OK

4:01 PM CDT on August 22, 2017 (GMT -0500)
Guthrie Municipal

Weather History for KGOK - October, 2013

Change the Weather History Date:

Wednesday, October 16, 2013

  Actual Average Record
Temperature  
Mean Temperature 49 °F -  
Max Temperature 57 °F 75 °F 90 °F (1948)
Min Temperature 43 °F 50 °F 27 °F (1966)
Degree Days  
Heating Degree Days 16    
Moisture  
Dew Point 40 °F    
Average Humidity 73    
Maximum Humidity 90    
Minimum Humidity 55    
Precipitation  
Precipitation 0.01 in - - ()
Sea Level Pressure  
Sea Level Pressure 30.14 in    
Wind  
Wind Speed 5 mph (NNW)    
Max Wind Speed 10 mph    
Max Gust Speed -    
Visibility 10 miles    
Events Rain    
Averages and records for this station are not official NWS values.
T = Trace of Precipitation, MM = Missing Value Source: NWS Daily Summary

Daily Weather History Graph

Daily Weather History Graph

Search for Another Location

Airport or City:

Trip Planner

Search our weather history database for the weather conditions in past years. The results will help you decide how hot, cold, wet, or windy it might be!

Date:

Astronomy

Oct. 16, 2013 Rise Set
Actual Time 7:37 AM CDT 6:52 PM CDT
Civil Twilight 7:11 AM CDT 7:18 PM CDT
Nautical Twilight 6:41 AM CDT 7:47 PM CDT
Astronomical Twilight 6:12 AM CDT 8:17 PM CDT
Moon 5:29 PM CDT (10/16) 5:10 AM CDT (10/16)
Length of Visible Light 12h 06m
Length of Day
11h 14m
Waxing Gibbous, 94% of the Moon is Illuminated
Oct 16
Waxing Gibbous
Oct 18
Full
Oct 26
Last Quarter
Nov 3
New
Nov 9
First Quarter

Hourly Weather History & Observations

Time (CDT) Temp. Windchill Dew Point Humidity Pressure Visibility Wind Dir Wind Speed Gust Speed Precip Events Conditions
12:53 AM 51.1 °F - 41.0 °F 68% 30.15 in 10.0 mi Variable 6.9 mph - N/A   Clear
1:53 AM 48.9 °F - 39.9 °F 71% 30.15 in 10.0 mi Variable 3.5 mph - N/A   Clear
2:53 AM 46.9 °F - 39.9 °F 77% 30.15 in 10.0 mi NNE 4.6 mph - N/A   Clear
3:53 AM 46.9 °F - 39.0 °F 74% 30.15 in 10.0 mi North 4.6 mph - N/A   Clear
4:53 AM 46.9 °F - 39.0 °F 74% 30.15 in 10.0 mi Variable 4.6 mph - N/A   Partly Cloudy
5:53 AM 46.0 °F 44.8 °F 39.0 °F 76% 30.17 in 10.0 mi Variable 3.5 mph - N/A   Partly Cloudy
6:53 AM 44.1 °F 42.5 °F 39.0 °F 82% 30.18 in 10.0 mi Variable 3.5 mph - N/A   Clear
7:53 AM 43.0 °F - 37.9 °F 82% 30.19 in 10.0 mi Calm Calm - N/A   Clear
8:53 AM 45.0 °F 42.6 °F 37.9 °F 76% 30.20 in 10.0 mi North 4.6 mph - N/A   Mostly Cloudy
9:53 AM 52.0 °F - 37.9 °F 59% 30.18 in 10.0 mi NNE 4.6 mph - N/A   Scattered Clouds
10:53 AM 53.1 °F - 37.9 °F 57% 30.19 in 10.0 mi NE 6.9 mph - N/A   Clear
11:53 AM 54.0 °F - 37.9 °F 55% 30.16 in 10.0 mi NNW 5.8 mph - N/A   Overcast
12:53 PM 54.0 °F - 39.0 °F 57% 30.14 in 10.0 mi NNE 6.9 mph - N/A   Scattered Clouds
1:53 PM 55.0 °F - 39.0 °F 55% 30.12 in 10.0 mi WNW 9.2 mph - N/A   Mostly Cloudy
2:53 PM 55.0 °F - 39.9 °F 57% 30.12 in 10.0 mi NW 10.4 mph - N/A   Overcast
3:53 PM 53.1 °F - 39.0 °F 59% 30.13 in 10.0 mi NW 9.2 mph - N/A   Overcast
4:53 PM 51.1 °F - 39.9 °F 66% 30.12 in 8.0 mi NW 6.9 mph - 0.00 in Rain Light Rain
5:53 PM 50.0 °F - 43.0 °F 77% 30.12 in 8.0 mi NW 4.6 mph - 0.01 in Rain Light Rain
6:53 PM 48.9 °F - 43.0 °F 80% 30.11 in 9.0 mi Calm Calm - 0.00 in   Overcast
7:53 PM 46.9 °F - 43.0 °F 86% 30.11 in 10.0 mi Calm Calm - N/A   Partly Cloudy
8:53 PM 46.9 °F - 44.1 °F 90% 30.11 in 9.0 mi Calm Calm - N/A   Mostly Cloudy
9:53 PM 46.9 °F - 43.0 °F 86% 30.12 in 8.0 mi West 3.5 mph - N/A   Mostly Cloudy
10:53 PM 45.0 °F 43.5 °F 42.1 °F 90% 30.11 in 8.0 mi SW 3.5 mph - N/A   Clear
11:53 PM 44.1 °F 41.5 °F 41.0 °F 89% 30.11 in 7.0 mi SSW 4.6 mph - N/A   Clear